Location: Newark
(48.5178°N, 4.2361°E)
Time: 05:51:29
(UTC+00:00)

ISS - Pass Details

Date: 23 January 2021
Orbit: 417 x 422 km, 51.6° (Epoch: 08 March)

Event Time Altitude Azimuth Distance (km) Brightness Sun altitude
Rises 18:30:35 0° 256° (WSW) 2,369 1.6 -20.1°
Reaches altitude 10° 18:32:41 10° 259° (W) 1,506 0.3 -20.4°
Enters shadow 18:35:54 67° 321° (NW) 461 -3.6 -21.0°
